KC1HBM Weather Reports


Display with metric or nautical units.
time (UTC)temp
F
wind
direction
speed
MPH
gust
MPH
rain 1hr
in
rain 24hr
in
rain mn
in
humidity
%
barometer
mb
20260902192432 65 304 2.0 2.0 0.00 0.00 0.00 88 1020.3
20260902191931 66 305 2.0 2.0 0.00 0.00 0.00 87 1020.6
20260902191426 66 308 1.0 2.0 0.00 0.00 0.00 86 1020.6
20260902190921 65 312 0.0 1.0 0.00 0.00 0.00 88 1020.6
20260902190417 65 310 1.0 1.0 0.00 0.00 0.00 88 1020.3
20260902185912 65 300 2.0 2.0 0.00 0.00 0.00 88 1020.4
20260902185409 65 306 2.0 2.0 0.00 0.00 0.00 88 1020.4
20260902184903 66 298 1.0 2.0 0.00 0.00 0.00 88 1020.2
20260902184358 65 310 1.0 2.0 0.00 0.00 0.00 88 1020.4
20260902183854 65 303 1.0 1.0 0.00 0.00 0.00 88 1020.6
20260902183350 66 307 1.0 2.0 0.00 0.00 0.00 86 1020.6
20260902182846 65 310 1.0 1.0 0.00 0.00 0.00 86 1020.3
20260902182342 65 293 2.0 2.0 0.00 0.00 0.00 87 1020.4
20260902181838 65 307 1.0 1.0 0.00 0.00 0.00 88 1020.5
20260902181333 65 306 1.0 1.0 0.00 0.00 0.00 88 1020.7
20260902180827 65 308 1.0 2.0 0.00 0.00 0.00 88 1020.8
20260902180324 65 307 1.0 1.0 0.00 0.00 0.00 86 1020.7
20260902175818 65 307 2.0 2.0 0.00 0.00 0.00 87 1020.9
20260902175314 65 306 2.0 2.0 0.00 0.00 0.00 87 1020.7
20260902174809 65 296 3.0 3.0 0.00 0.00 0.00 86 1020.7
20260902174306 66 308 2.0 2.0 0.00 0.00 0.00 87 1020.6
20260902173801 66 306 4.0 5.0 0.00 0.00 0.00 85 1020.3
20260902173255 66 288 2.0 3.0 0.00 0.00 0.00 85 1020.3
20260902172750 65 301 3.0 3.0 0.00 0.00 0.00 87 1020.6
20260902172249 65 300 3.0 3.0 0.00 0.00 0.00 87 1020.5
20260902171744 66 299 2.0 2.0 0.00 0.00 0.00 88 1020.3
20260902171239 65 299 3.0 5.0 0.00 0.00 0.00 87 1020.4
20260902170736 65 270 3.0 5.0 0.00 0.00 0.00 87 1020.3
20260902170231 66 295 3.0 3.0 0.00 0.00 0.00 87 1020.4
20260902165726 65 293 2.0 2.0 0.00 0.00 0.00 87 1020.3
20260902165221 65 296 4.0 5.0 0.00 0.00 0.00 87 1020.4
20260902164720 66 308 3.0 3.0 0.00 0.00 0.00 87 1020.5
20260902164215 66 289 3.0 3.0 0.00 0.00 0.00 86 1020.6
20260902163710 66 309 2.0 2.0 0.00 0.00 0.00 87 1020.6
20260902163209 66 309 2.0 2.0 0.00 0.00 0.00 88 1020.7
20260902162708 66 308 2.0 2.0 0.00 0.00 0.00 87 1020.8
20260902162203 67 302 2.0 2.0 0.00 0.00 0.00 86 1020.8
20260902161658 66 304 1.0 1.0 0.00 0.00 0.00 86 1021.1
20260902161153 66 302 2.0 2.0 0.00 0.00 0.00 88 1021.0
20260902160650 66 304 2.0 2.0 0.00 0.00 0.00 87 1021.0
20260902160144 66 306 3.0 3.0 0.00 0.00 0.00 87 1021.0
20260902155643 66 296 3.0 3.0 0.00 0.00 0.00 87 1021.1
20260902155142 66 305 2.0 2.0 0.00 0.00 0.00 86 1021.3
20260902154637 67 311 1.0 1.0 0.00 0.00 0.00 85 1021.3
20260902154132 66 302 2.0 2.0 0.00 0.00 0.00 85 1021.3
20260902153631 67 306 2.0 2.0 0.00 0.00 0.00 83 1021.1
20260902153126 67 299 1.0 2.0 0.00 0.00 0.00 84 1021.2
20260902152622 67 306 1.0 2.0 0.00 0.00 0.00 85 1021.2
20260902152118 67 303 1.0 2.0 0.00 0.00 0.00 85 1021.2
20260902151613 67 307 1.0 1.0 0.00 0.00 0.00 83 1021.0
20260902151113 67 303 1.0 2.0 0.00 0.00 0.00 85 1021.2
20260902150608 66 300 2.0 2.0 0.00 0.00 0.00 86 1020.9
20260902150103 66 314 2.0 2.0 0.00 0.00 0.00 86 1020.8
20260902145558 65 305 2.0 2.0 0.00 0.00 0.00 87 1020.8
20260902145057 65 286 3.0 3.0 0.00 0.00 0.00 86 1021.0
20260902144554 65 304 2.0 2.0 0.00 0.00 0.00 87 1021.0
20260902144049 65 301 3.0 3.0 0.00 0.00 0.00 86 1020.8
20260902143544 65 311 2.0 2.0 0.00 0.00 0.00 86 1021.0
20260902143039 66 304 1.0 1.0 0.00 0.00 0.00 86 1021.2
20260902142535 66 291 2.0 2.0 0.00 0.00 0.00 85 1020.9
20260902142030 65 303 2.0 2.0 0.00 0.00 0.00 86 1020.9
20260902141530 65 288 3.0 3.0 0.00 0.00 0.00 85 1020.8
20260902141025 66 300 3.0 3.0 0.00 0.00 0.00 85 1020.6
20260902140520 66 298 4.0 5.0 0.00 0.00 0.00 87 1020.7
20260902140016 67 304 2.0 2.0 0.00 0.00 0.00 84 1020.4
20260902135509 67 294 2.0 2.0 0.00 0.00 0.00 85 1020.5
20260902135010 68 292 3.0 3.0 0.00 0.00 0.00 83 1020.6
20260902134505 68 306 2.0 3.0 0.00 0.00 0.00 84 1020.6
20260902134000 68 297 1.0 2.0 0.00 0.00 0.00 83 1020.5
20260902133455 67 305 1.0 1.0 0.00 0.00 0.00 86 1020.5
20260902132949 67 309 1.0 2.0 0.00 0.00 0.00 87 1020.7
20260902132445 66 303 1.0 1.0 0.00 0.00 0.00 87 1020.6
20260902131939 66 306 1.0 2.0 0.00 0.00 0.00 88 1020.7
20260902131436 66 304 2.0 2.0 0.00 0.00 0.00 89 1020.6
20260902130935 66 311 1.0 2.0 0.00 0.00 0.00 89 1020.6
20260902130431 66 303 1.0 1.0 0.00 0.00 0.00 92 1020.5
20260902125926 65 308 2.0 2.0 0.00 0.00 0.00 94 1020.6
20260902125422 64 302 1.0 1.0 0.00 0.00 0.00 99 1020.6
20260902124918 63 308 1.0 1.0 0.00 0.00 0.00 99 1020.4
20260902124414 63 311 0.0 1.0 0.00 0.00 0.00 99 1020.4
20260902123908 63 308 1.0 1.0 0.00 0.00 0.00 99 1020.6
20260902123405 63 308 0.0 1.0 0.00 0.00 0.00 99 1020.6
20260902122903 62 308 1.0 1.0 0.00 0.00 0.00 99 1020.4
20260902122359 62 307 0.0 0.0 0.00 0.00 0.00 99 1020.7
20260902121854 62 307 0.0 1.0 0.00 0.00 0.00 99 1020.7
20260902121349 62 311 0.0 0.0 0.00 0.00 0.00 99 1020.8
20260902120844 61 304 1.0 1.0 0.00 0.00 0.00 99 1020.7
20260902120340 61 309 0.0 0.0 0.00 0.00 0.00 99 1020.6
20260902115834 61 310 0.0 0.0 0.00 0.00 0.00 99 1020.8
20260902115331 61 312 0.0 0.0 0.00 0.00 0.00 99 1020.6
20260902114827 61 310 0.0 0.0 0.00 0.00 0.00 99 1020.6
20260902114323 61 311 0.0 0.0 0.00 0.00 0.00 99 1020.8
20260902113822 61 310 0.0 0.0 0.00 0.00 0.00 99 1020.6
20260902113317 61 308 0.0 1.0 0.00 0.00 0.00 99 1020.3
20260902112812 61 306 2.0 2.0 0.00 0.00 0.00 99 1020.3
20260902112309 61 311 0.0 0.0 0.00 0.00 0.00 99 1020.1
20260902111804 61 307 1.0 1.0 0.00 0.00 0.00 99 1020.1
20260902111300 61 309 0.0 1.0 0.00 0.00 0.00 99 1020.3
20260902110755 61 307 1.0 1.0 0.00 0.00 0.00 99 1020.1
20260902110251 61 308 1.0 1.0 0.00 0.00 0.00 99 1020.1
20260902105751 61 308 0.0 0.0 0.00 0.00 0.00 99 1020.1
20260902105246 61 303 1.0 1.0 0.00 0.00 0.00 99 1020.1
20260902104742 61 306 0.0 0.0 0.00 0.00 0.00 99 1020.0
20260902104237 61 310 1.0 2.0 0.00 0.00 0.00 99 1019.9
20260902103737 61 286 1.0 2.0 0.00 0.00 0.00 99 1020.2
20260902103231 61 303 0.0 0.0 0.00 0.00 0.00 99 1020.1
20260902102727 61 308 1.0 1.0 0.00 0.00 0.00 99 1020.2
20260902102225 61 311 1.0 1.0 0.00 0.00 0.00 99 1019.9
20260902101720 61 305 0.0 1.0 0.00 0.00 0.00 99 1020.0
20260902101214 61 311 1.0 2.0 0.00 0.00 0.00 99 1020.0
20260902100713 61 308 1.0 1.0 0.00 0.00 0.00 99 1019.9
20260902100208 61 309 0.0 1.0 0.00 0.00 0.00 99 1019.9
20260902095708 60 310 0.0 0.0 0.00 0.00 0.00 99 1019.9
20260902095202 60 310 0.0 0.0 0.00 0.00 0.00 99 1019.9
20260902094657 61 310 0.0 0.0 0.00 0.00 0.00 99 1020.0
20260902094154 61 308 0.0 0.0 0.00 0.00 0.00 99 1019.9
20260902093653 61 305 2.0 2.0 0.00 0.00 0.00 99 1019.9
20260902093148 61 295 2.0 2.0 0.00 0.00 0.00 99 1020.0
20260902092643 61 309 0.0 0.0 0.00 0.00 0.00 99 1019.9
20260902092143 61 308 0.0 0.0 0.00 0.00 0.00 99 1019.9
20260902091638 61 311 0.0 0.0 0.00 0.00 0.00 99 1019.8
20260902091134 61 308 1.0 1.0 0.00 0.00 0.00 99 1019.8
20260902090630 61 310 0.0 0.0 0.00 0.00 0.00 99 1019.6
20260902090129 61 314 0.0 0.0 0.00 0.00 0.00 99 1019.7
20260902085624 61 310 0.0 0.0 0.00 0.00 0.00 99 1019.8
20260902085119 61 304 0.0 0.0 0.00 0.00 0.00 99 1019.8
20260902084615 61 308 0.0 0.0 0.00 0.00 0.00 99 1019.8
20260902084111 61 307 0.0 0.0 0.00 0.00 0.00 99 1019.8
20260902083606 61 308 0.0 0.0 0.00 0.00 0.00 99 1019.6
20260902083105 62 302 0.0 0.0 0.00 0.00 0.00 99 1019.8
20260902082601 62 308 0.0 0.0 0.00 0.00 0.00 99 1019.9
20260902082057 61 310 0.0 0.0 0.00 0.00 0.00 99 1019.8
20260902081554 62 310 0.0 0.0 0.00 0.00 0.00 99 1019.7
20260902081053 61 314 0.0 0.0 0.00 0.00 0.00 99 1019.6
20260902080548 61 312 0.0 0.0 0.00 0.00 0.00 99 1019.7
20260902080045 62 310 0.0 0.0 0.00 0.00 0.00 99 1019.6
20260902075544 61 310 0.0 0.0 0.00 0.00 0.00 99 1019.3
20260902075041 61 312 0.0 0.0 0.00 0.00 0.00 99 1019.3
20260902074536 61 310 0.0 0.0 0.00 0.00 0.00 99 1019.5
20260902074031 61 311 0.0 0.0 0.00 0.00 0.00 99 1019.3
20260902073526 61 312 0.0 0.0 0.00 0.00 0.00 99 1019.2
20260902073023 61 310 0.0 0.0 0.00 0.00 0.00 99 1019.0
20260902072518 61 312 0.0 0.0 0.00 0.00 0.00 99 1019.1
20260902072015 61 310 0.0 0.0 0.00 0.00 0.00 99 1019.1
20260902071514 62 312 0.0 0.0 0.00 0.00 0.00 99 1019.1
20260902071011 62 310 0.0 0.0 0.00 0.00 0.00 99 1019.1
20260902070506 62 310 0.0 0.0 0.00 0.00 0.00 99 1019.0
20260902070007 61 310 0.0 0.0 0.00 0.00 0.00 99 1019.0
20260902065454 61 310 0.0 0.0 0.00 0.00 0.00 99 1019.1
20260902064949 61 310 0.0 0.0 0.00 0.00 0.00 99 1019.0
20260902064445 61 311 0.0 0.0 0.00 0.00 0.00 99 1019.0
20260902063940 61 310 0.0 0.0 0.00 0.00 0.00 99 1019.0
20260902063439 61 310 0.0 0.0 0.00 0.00 0.00 99 1019.1
20260902062935 61 310 0.0 0.0 0.00 0.00 0.00 99 1019.2
20260902062434 61 311 0.0 0.0 0.00 0.00 0.00 99 1019.2
20260902061929 61 311 0.0 0.0 0.00 0.00 0.00 99 1019.1
20260902061424 61 312 0.0 0.0 0.00 0.00 0.00 99 1018.9
20260902060920 62 310 0.0 0.0 0.00 0.00 0.00 99 1019.1
20260902060416 62 310 0.0 0.0 0.00 0.00 0.00 99 1019.2
20260902055912 61 309 0.0 0.0 0.00 0.00 0.00 99 1019.1
20260902055408 62 310 0.0 0.0 0.00 0.00 0.00 99 1019.2
20260902054903 62 311 0.0 0.0 0.00 0.00 0.00 99 1018.8
20260902054358 62 309 0.0 0.0 0.00 0.00 0.00 99 1018.8
20260902053853 61 311 0.0 0.0 0.00 0.00 0.00 99 1018.7
20260902053348 61 311 0.0 0.0 0.00 0.00 0.00 99 1018.6
20260902052847 61 312 0.0 0.0 0.00 0.00 0.00 99 1018.6
20260902052337 61 310 0.0 0.0 0.00 0.00 0.00 99 1018.4
20260902051837 61 311 0.0 0.0 0.00 0.00 0.00 99 1018.4
20260902051331 61 311 0.0 0.0 0.00 0.00 0.00 99 1018.3
20260902050826 62 313 0.0 0.0 0.00 0.00 0.00 99 1018.3
20260902050326 62 311 0.0 0.0 0.00 0.00 0.00 99 1018.5
20260902045821 62 310 0.0 0.0 0.00 0.00 0.00 99 1018.2
20260902045317 62 310 0.0 0.0 0.00 0.00 0.00 99 1018.3
20260902044813 62 310 0.0 0.0 0.00 0.00 0.00 99 1018.3
20260902044308 62 310 0.0 0.0 0.00 0.00 0.00 99 1018.3
20260902043802 62 310 0.0 0.0 0.00 0.00 0.00 99 1018.3
20260902043258 62 310 0.0 0.0 0.00 0.00 0.00 99 1018.0
20260902042757 62 310 0.0 0.0 0.00 0.00 0.00 99 1018.2
20260902042252 62 310 0.0 0.0 0.00 0.00 0.00 99 1018.2
20260902041748 62 308 0.0 0.0 0.00 0.00 0.00 99 1017.8
20260902041247 62 310 0.0 0.0 0.00 0.00 0.00 99 1017.9
20260902040746 62 309 0.0 0.0 0.00 0.00 0.00 99 1018.1
20260902040242 62 310 0.0 0.0 0.00 0.00 0.00 99 1018.1
20260902035740 62 312 0.0 0.0 0.00 0.00 0.00 99 1018.2
20260902035236 62 311 0.0 0.0 0.00 0.00 0.00 99 1018.1
20260902034735 62 311 0.0 0.0 0.00 0.00 0.00 99 1017.9
20260902034230 62 312 0.0 0.0 0.00 0.00 0.00 99 1018.2
20260902033728 62 311 0.0 0.0 0.00 0.00 0.00 99 1018.0
20260902033224 62 310 0.0 0.0 0.00 0.00 0.00 99 1017.9
20260902032722 62 312 0.0 0.0 0.00 0.00 0.00 99 1017.8
20260902032218 62 309 0.0 0.0 0.00 0.00 0.00 99 1018.0
20260902031717 62 312 0.0 0.0 0.00 0.00 0.00 99 1017.7
20260902031213 62 310 0.0 0.0 0.00 0.00 0.00 99 1017.4
20260902030709 62 311 0.0 0.0 0.00 0.00 0.00 99 1017.4
20260902030208 62 311 0.0 0.0 0.00 0.00 0.00 99 1017.4
20260902025707 62 311 0.0 0.0 0.00 0.00 0.00 99 1017.4
20260902025203 62 308 0.0 0.0 0.00 0.00 0.00 99 1017.4
20260902024657 62 307 0.0 0.0 0.00 0.00 0.00 99 1017.4
20260902024153 62 307 0.0 0.0 0.00 0.00 0.00 99 1017.5
20260902023648 62 309 0.0 0.0 0.00 0.00 0.00 99 1017.6
20260902023144 62 316 0.0 0.0 0.00 0.00 0.00 99 1017.6
20260902022643 62 311 0.0 0.0 0.00 0.00 0.00 99 1017.4
20260902022139 62 311 0.0 0.0 0.00 0.00 0.00 99 1017.4
20260902021634 63 309 0.0 0.0 0.00 0.00 0.00 99 1017.4
20260902021129 63 311 0.0 0.0 0.00 0.00 0.00 99 1017.2
20260902020625 63 310 0.0 0.0 0.00 0.00 0.00 99 1017.3
20260902020120 63 307 0.0 0.0 0.00 0.00 0.00 99 1017.4
20260902015616 62 311 0.0 0.0 0.00 0.00 0.00 99 1017.5
20260902015112 62 310 0.0 0.0 0.00 0.00 0.00 99 1017.6
20260902014608 62 311 0.0 0.0 0.00 0.00 0.00 99 1017.6
20260902014103 62 311 0.0 0.0 0.00 0.00 0.00 99 1017.6
20260902013602 62 310 0.0 0.0 0.00 0.00 0.00 99 1017.6
20260902013058 62 311 0.0 0.0 0.00 0.00 0.00 99 1017.6
20260902012553 62 313 0.0 0.0 0.00 0.00 0.00 99 1017.6
20260902012048 62 311 0.0 0.0 0.00 0.00 0.00 99 1017.6
20260902011544 63 311 0.0 0.0 0.00 0.00 0.00 99 1017.5
20260902011043 63 310 0.0 0.0 0.00 0.00 0.00 99 1017.3
20260902010542 63 311 0.0 0.0 0.00 0.00 0.00 99 1017.4
20260902010039 63 310 0.0 0.0 0.00 0.00 0.00 99 1017.3
20260902005536 63 304 0.0 0.0 0.00 0.00 0.00 99 1017.2
20260902005033 63 311 0.0 0.0 0.00 0.00 0.00 99 1017.4
20260902004532 63 311 0.0 0.0 0.00 0.00 0.00 99 1017.4
20260902004028 63 311 0.0 0.0 0.00 0.00 0.00 99 1017.2
20260902003523 63 312 0.0 0.0 0.00 0.00 0.00 99 1017.0
20260902003018 64 309 0.0 0.0 0.00 0.00 0.00 99 1017.1
20260902002514 64 310 0.0 0.0 0.00 0.00 0.00 99 1017.0
20260902002009 64 311 0.0 0.0 0.00 0.00 0.00 99 1016.7
20260902001503 64 311 0.0 0.0 0.00 0.00 0.00 99 1016.9
20260902000958 64 307 0.0 0.0 0.00 0.00 0.00 99 1016.9
20260902000453 64 309 0.0 0.0 0.00 0.00 0.00 99 1017.1
20260901235948 64 311 0.0 0.0 0.00 0.00 0.00 99 1016.9
20260901235443 64 311 0.0 0.0 0.00 0.00 0.00 99 1016.9
20260901234938 64 308 0.0 0.0 0.00 0.00 0.00 99 1016.9
20260901234431 64 310 0.0 0.0 0.00 0.00 0.00 99 1016.8
20260901233926 64 311 0.0 0.0 0.00 0.00 0.00 99 1016.8
20260901233422 64 311 0.0 0.0 0.00 0.00 0.00 99 1016.8
20260901232918 64 310 0.0 0.0 0.00 0.00 0.00 99 1016.8
20260901232413 64 308 0.0 0.0 0.00 0.00 0.00 99 1016.9
20260901231908 64 310 0.0 0.0 0.00 0.00 0.00 99 1016.7
20260901231404 65 309 0.0 0.0 0.00 0.00 0.00 99 1017.0
20260901230901 64 304 0.0 0.0 0.00 0.00 0.00 99 1016.9
20260901230400 65 309 0.0 0.0 0.00 0.00 0.00 99 1016.8
20260901225855 65 311 0.0 0.0 0.00 0.00 0.00 98 1016.6
20260901225355 65 306 0.0 0.0 0.00 0.00 0.00 98 1016.4
20260901224850 65 306 0.0 0.0 0.00 0.00 0.00 98 1016.4
20260901224346 66 306 2.0 2.0 0.00 0.00 0.00 97 1016.4
20260901223842 66 305 1.0 1.0 0.00 0.00 0.00 96 1016.3
20260901223338 66 303 1.0 1.0 0.00 0.00 0.00 96 1016.5
20260901222833 66 310 0.0 0.0 0.00 0.00 0.00 96 1016.5
20260901222330 66 310 1.0 1.0 0.00 0.00 0.00 96 1016.5
20260901221825 66 303 0.0 0.0 0.00 0.00 0.00 96 1016.6
20260901221320 67 303 0.0 0.0 0.00 0.00 0.00 96 1016.4
20260901220820 66 309 0.0 0.0 0.00 0.00 0.00 95 1016.4
20260901220319 66 310 0.0 0.0 0.00 0.00 0.00 95 1016.6
20260901215818 67 308 0.0 0.0 0.00 0.00 0.00 95 1016.4
20260901215317 66 304 0.0 0.0 0.00 0.00 0.00 95 1016.3
20260901214816 66 307 0.0 0.0 0.00 0.00 0.00 95 1016.5
20260901214315 67 311 0.0 0.0 0.00 0.00 0.00 95 1016.3
20260901213810 67 304 1.0 2.0 0.00 0.00 0.00 95 1016.3
20260901213309 67 309 0.0 1.0 0.00 0.00 0.00 95 1016.2
20260901212804 67 309 1.0 2.0 0.00 0.00 0.00 94 1016.2
20260901212300 67 309 0.0 0.0 0.00 0.00 0.00 94 1016.1
20260901211755 67 309 1.0 1.0 0.00 0.00 0.00 94 1016.1
20260901211252 67 306 2.0 2.0 0.00 0.00 0.00 94 1016.1
20260901210747 67 302 1.0 2.0 0.00 0.00 0.00 94 1016.0
20260901210243 68 306 2.0 2.0 0.00 0.00 0.00 94 1016.2
20260901205738 67 291 2.0 3.0 0.00 0.00 0.00 93 1015.8
20260901205238 67 299 1.0 2.0 0.00 0.00 0.00 94 1016.1
20260901204734 68 309 1.0 1.0 0.00 0.00 0.00 93 1016.1
20260901204230 68 303 1.0 2.0 0.00 0.00 0.00 94 1015.9
20260901203724 68 304 1.0 1.0 0.00 0.00 0.00 93 1015.7
20260901203219 67 307 2.0 2.0 0.00 0.00 0.00 93 1015.8
20260901202718 68 299 2.0 2.0 0.00 0.00 0.00 93 1015.7
20260901202214 68 311 1.0 1.0 0.00 0.00 0.00 92 1015.8
20260901201709 68 300 1.0 2.0 0.00 0.00 0.00 93 1015.8
20260901201208 67 310 2.0 2.0 0.00 0.00 0.00 92 1015.5
20260901200703 68 302 2.0 2.0 0.00 0.00 0.00 93 1015.8
20260901200158 68 306 1.0 2.0 0.00 0.00 0.00 92 1015.9
20260901195655 68 310 1.0 1.0 0.00 0.00 0.00 92 1015.9
20260901195150 68 292 2.0 2.0 0.00 0.00 0.00 92 1015.6
20260901194646 68 300 2.0 2.0 0.00 0.00 0.00 92 1015.7
20260901194141 68 306 1.0 1.0 0.00 0.00 0.00 90 1016.0
20260901193636 68 305 1.0 1.0 0.00 0.00 0.00 90 1016.0
20260901193131 68 305 1.0 1.0 0.00 0.00 0.00 91 1016.0